Hourly Data Report for May 31, 2020

TORONTO CITY
ONTARIO
Current Station Operator: ECCC - MSC

43°40'00.000" N
79°24'00.000" W
112.50 m
6158355
71508
XTO

Download Data

Hourly Data (May 2020)
Hourly Data Report for May 31, 2020
TIME
LST
Temp Definition
°C
Dew Point Definition
°C
Rel Hum Definition
%
Precip. Amount Definition
mm

Wind Dir Definition
10's deg

Wind Spd Definition
km/h
Visibility Definition
km
Stn Press Definition
kPa
Hmdx Definition


Wind Chill Definition


Weather Definition


00:00 10.1 3.9 65 0.0       100.63     LegendNANA
01:00 9.4 3.2 65 0.0       100.66     LegendNANA
02:00 8.8 2.9 67 0.0       100.66     LegendNANA
03:00 8.3 3.4 71 0.0       100.69     LegendNANA
04:00 8.0 3.7 74 0.0       100.73     LegendNANA
05:00 7.9 4.2 78 0.0       100.79     LegendNANA
06:00 8.8 2.5 65 0.0       100.85     LegendNANA
07:00 9.9 1.9 58 0.0       100.94     LegendNANA
08:00 11.5 -2.1 39 0.0       101.01     LegendNANA
09:00 12.1 -2.7 35 0.0       101.04     LegendNANA
10:00 12.7 -3.0 34 0.0       101.08     LegendNANA
11:00 12.8 -2.6 34 0.3       101.05     LegendNANA
12:00 13.7 -3.6 30 0.0       101.05     LegendNANA
13:00 14.3 -4.2 28 0.0       101.04     LegendNANA
14:00 14.5 -4.2 27 0.0       101.02     LegendNANA
15:00 16.0 -2.5 28 0.0       100.98     LegendNANA
16:00 14.4 -1.1 35 0.4       100.93     LegendNANA
17:00 12.7 -0.9 39 0.2       100.95     LegendNANA
18:00 13.4 0.3 41 0.0       100.94     LegendNANA
19:00 13.4 -2.4 33 0.0       100.97     LegendNANA
20:00 12.9 -0.7 39 0.0       100.96     LegendNANA
21:00 12.9 1.2 45 0.0       100.99     LegendNANA
22:00 12.9 2.7 50 0.0       101.01     LegendNANA
23:00 12.7 2.3 49 0.0       100.95     LegendNANA

Notes on Data Quality.

Legend

  • E = Estimated
  • M = Missing
  • NA = Not Available*
  • [empty] = Indicates an unobserved value
Date modified: